Total_Precipitation_Accumulation
1.68 1.76 1.70 1.68 1.62 1.64 1.68 1.68 1.64 1.61 1.54 1.56 1.64 1.66 1.63 1.68 1.77 1.85 1.73 1.78 1.76 1.78 1.77 1.83 1.84 1.97 1.97 1.89 2.00 2.05 2.12 2.23 2.02 1.64 1.67 1.79 1.81 1.62 1.57 1.50 1.48 1.48 1.43
1.48 1.46 1.46 1.51 1.51 1.46 1.44 1.50 1.55 1.48 1.42 1.48 1.53 1.50 1.44 1.55 1.70 1.73 1.66 1.73 1.77 1.73 1.81 1.95 1.87 1.94 2.00 2.06 2.22 2.12 2.19 2.47 2.39 2.05 2.00 2.09 1.99 1.86 1.80 1.68 1.45 1.37 1.36
1.24 1.22 1.24 1.28 1.29 1.30 1.32 1.38 1.47 1.49 1.49 1.46 1.43 1.36 1.37 1.45 1.53 1.54 1.63 1.75 1.80 1.82 1.91 1.99 2.03 2.21 2.11 2.15 2.20 2.14 2.19 2.44 2.63 2.39 2.21 2.31 2.27 2.06 2.01 1.78 1.62 1.63 1.42
1.14 1.22 1.33 1.37 1.41 1.43 1.42 1.48 1.58 1.64 1.59 1.59 1.57 1.59 1.61 1.58 1.58 1.64 1.73 1.80 1.82 1.87 2.02 2.05 2.08 2.16 2.22 2.36 2.35 2.41 2.56 2.74 2.88 2.73 2.58 2.66 2.69 2.58 2.37 2.00 1.87 1.76 1.62
1.30 1.41 1.59 1.75 1.79 1.69 1.67 1.76 1.84 1.88 1.82 1.94 1.91 1.89 1.94 1.90 1.71 1.84 1.91 1.86 1.96 1.90 1.98 2.03 2.01 2.13 2.20 2.30 2.23 2.42 2.73 2.92 3.05 3.07 3.01 3.15 3.09 2.98 2.64 2.26 2.16 2.04 1.86
1.18 1.33 1.55 1.75 1.87 1.87 1.92 2.03 2.06 2.02 2.13 2.21 2.13 2.10 2.08 1.84 1.95 2.02 2.01 2.08 2.11 2.06 2.07 2.10 2.08 2.07 1.99 2.01 2.08 2.21 2.40 2.59 2.82 3.03 3.10 3.18 3.21 3.11 2.92 2.65 2.31 2.05 1.86
1.40 1.59 1.71 1.87 2.00 2.03 2.00 2.03 2.08 2.11 2.09 2.14 2.14 2.17 2.05 1.99 1.99 1.84 1.87 1.90 2.02 2.07 2.11 2.13 1.95 1.82 1.87 1.77 1.91 1.97 1.94 1.99 2.12 2.40 2.61 2.66 2.90 3.03 2.94 2.59 2.27 2.00 1.79
1.36 1.53 1.66 1.85 1.98 2.05 2.14 2.19 2.26 2.33 2.34 2.33 2.27 2.25 2.21 2.07 1.96 1.80 1.88 1.78 1.83 1.87 1.92 1.95 1.93 1.83 1.82 1.90 1.90 1.77 1.60 1.55 1.67 1.68 1.76 2.02 2.33 2.68 2.80 2.67 2.61 2.31 1.98
1.57 1.74 1.88 1.98 2.11 2.18 2.22 2.34 2.45 2.53 2.50 2.50 2.47 2.46 2.45 2.43 2.36 2.07 1.99 1.83 1.87 1.86 1.87 1.87 1.84 1.71 1.84 1.80 1.73 1.72 1.60 1.49 1.50 1.53 1.57 1.77 2.06 2.34 2.58 2.61 2.52 2.41 2.12
1.95 2.01 2.09 2.20 2.27 2.26 2.28 2.36 2.39 2.42 2.43 2.45 2.39 2.45 2.42 2.43 2.50 2.22 2.01 1.77 1.80 1.83 1.92 1.93 1.94 1.78 1.85 1.80 1.75 1.76 1.65 1.55 1.54 1.51 1.52 1.57 1.64 1.95 2.28 2.29 2.27 2.32 2.17
1.97 2.05 2.15 2.25 2.45 2.56 2.59 2.47 2.33 2.32 2.39 2.49 2.49 2.54 2.54 2.47 2.43 2.08 1.94 1.84 1.90 1.93 1.88 1.83 1.84 1.84 1.67 1.57 1.51 1.51 1.56 1.59 1.59 1.51 1.44 1.44 1.50 1.62 1.84 1.94 2.02 2.05 1.99
1.93 2.05 2.17 2.24 2.25 2.30 2.56 2.62 2.57 2.48 2.40 2.43 2.51 2.46 2.37 2.32 2.19 1.89 1.65 1.63 1.71 1.72 1.70 1.67 1.66 1.62 1.42 1.28 1.14 1.11 1.18 1.18 1.24 1.32 1.31 1.27 1.29 1.36 1.53 1.80 1.98 2.00 1.90
1.99 2.16 2.31 2.38 2.42 2.39 2.42 2.50 2.47 2.39 2.25 2.11 2.17 2.21 2.20 2.21 2.08 1.77 1.47 1.37 1.40 1.35 1.42 1.62 1.61 1.47 1.34 1.25 1.18 1.10 1.02 0.94 1.02 1.12 1.07 1.07 1.12 1.22 1.38 1.69 1.95 2.14 2.04
2.09 2.16 2.22 2.27 2.30 2.34 2.47 2.40 2.33 2.32 2.25 2.07 2.09 2.13 2.15 2.13 1.98 1.73 1.55 1.45 1.40 1.33 1.36 1.53 1.61 1.59 1.50 1.40 1.29 1.12 0.95 0.93 0.95 1.00 1.06 1.10 1.21 1.29 1.36 1.45 1.71 1.92 2.02
1.93 1.87 1.96 2.07 2.12 2.13 2.29 2.36 2.18 2.08 2.13 2.03 2.09 2.25 2.19 1.99 1.83 1.67 1.48 1.44 1.44 1.49 1.50 1.59 1.70 1.73 1.71 1.60 1.44 1.29 1.18 1.13 1.08 1.07 1.16 1.20 1.24 1.26 1.25 1.29 1.47 1.62 1.62
1.97 1.94 1.93 1.97 2.03 2.06 2.05 2.09 2.05 1.82 1.77 1.69 1.73 1.81 1.86 1.76 1.65 1.56 1.47 1.43 1.37 1.38 1.38 1.52 1.79 1.86 1.87 1.84 1.73 1.55 1.40 1.31 1.24 1.23 1.25 1.24 1.25 1.29 1.33 1.37 1.46 1.57 1.55
2.09 2.17 2.11 1.94 1.87 1.86 1.81 1.77 1.77 1.66 1.43 1.34 1.32 1.30 1.28 1.29 1.31 1.37 1.41 1.36 1.29 1.18 1.12 1.31 1.61 1.82 1.90 1.92 1.84 1.64 1.45 1.42 1.46 1.41 1.36 1.32 1.31 1.34 1.43 1.46 1.50 1.59 1.64
1.77 1.84 1.81 1.72 1.65 1.60 1.55 1.49 1.43 1.49 1.45 1.32 1.24 1.19 1.16 1.12 1.16 1.34 1.47 1.30 1.18 1.13 1.07 1.22 1.47 1.75 1.88 1.94 1.91 1.83 1.68 1.61 1.60 1.55 1.50 1.45 1.42 1.44 1.44 1.45 1.48 1.51 1.55
1.58 1.60 1.56 1.57 1.61 1.61 1.65 1.61 1.50 1.48 1.56 1.56 1.45 1.24 1.20 1.18 1.20 1.44 1.54 1.23 1.15 1.21 1.23 1.28 1.39 1.59 1.79 1.92 1.92 1.88 1.81 1.74 1.72 1.73 1.68 1.63 1.59 1.62 1.56 1.48 1.49 1.57 1.58
1.50 1.63 1.59 1.49 1.50 1.63 1.70 1.65 1.66 1.74 1.74 1.82 1.79 1.51 1.32 1.23 1.18 1.43 1.55 1.38 1.35 1.37 1.35 1.36 1.41 1.54 1.74 1.91 1.95 1.90 1.91 1.85 1.82 1.78 1.73 1.68 1.64 1.67 1.66 1.63 1.64 1.67 1.60
1.43 1.47 1.52 1.46 1.47 1.54 1.61 1.64 1.64 1.69 1.79 1.83 1.79 1.58 1.42 1.26 1.34 1.58 1.75 1.63 1.52 1.53 1.52 1.49 1.51 1.61 1.73 1.82 1.82 1.76 1.76 1.82 1.79 1.74 1.70 1.67 1.62 1.59 1.60 1.66 1.67 1.70 1.67
1.40 1.41 1.43 1.42 1.45 1.46 1.49 1.60 1.70 1.77 1.83 1.88 1.75 1.59 1.55 1.44 1.50 1.64 1.71 1.66 1.58 1.54 1.52 1.52 1.57 1.66 1.73 1.76 1.74 1.72 1.71 1.73 1.72 1.70 1.71 1.70 1.68 1.65 1.67 1.67 1.67 1.71 1.73
1.24 1.28 1.35 1.37 1.37 1.36 1.35 1.36 1.43 1.53 1.65 1.70 1.58 1.53 1.52 1.56 1.54 1.58 1.66 1.66 1.61 1.55 1.48 1.49 1.52 1.52 1.52 1.55 1.52 1.54 1.56 1.56 1.56 1.61 1.70 1.74 1.76 1.73 1.69 1.64 1.60 1.65 1.70
0.93 0.96 0.97 1.01 1.06 1.14 1.20 1.23 1.24 1.27 1.39 1.44 1.35 1.38 1.40 1.42 1.40 1.42 1.47 1.49 1.50 1.49 1.46 1.41 1.41 1.41 1.37 1.34 1.35 1.35 1.34 1.37 1.38 1.44 1.52 1.63 1.68 1.73 1.73 1.69 1.70 1.70 1.73
0.90 0.91 0.88 0.91 0.94 1.00 1.08 1.13 1.19 1.26 1.29 1.30 1.30 1.29 1.30 1.29 1.30 1.34 1.32 1.31 1.30 1.28 1.23 1.23 1.27 1.28 1.29 1.21 1.14 1.11 1.17 1.17 1.17 1.23 1.27 1.39 1.49 1.57 1.61 1.63 1.68 1.75 1.76
0.87 0.91 0.92 0.94 0.98 1.02 1.08 1.13 1.17 1.15 1.16 1.16 1.17 1.20 1.25 1.23 1.20 1.20 1.15 1.12 1.15 1.14 1.11 1.10 1.11 1.13 1.13 1.09 1.06 1.06 1.03 0.95 0.97 1.09 1.11 1.18 1.31 1.39 1.44 1.50 1.49 1.58 1.64